Location: Colonia Mina de C?rbuni
(46.1667°N, 22.7167°E)
Time: 03:01:34
(UTC+00:00)

Tiros 1 - Visible Passes

Search period start: 22 April 2024 00:00
Search period end: 02 May 2024 00:00
Orbit: 625 x 657 km, 48.4° (Epoch: 21 April)

Date Brightness Start Highest point End Pass type
(mag) Time Alt. Az. Time Alt. Az. Time Alt. Az.
22 Apr 7.4 01:01:53 34° WNW 01:03:46 66° N 01:08:21 10° E visible
22 Apr 7.1 02:41:20 10° WNW 02:45:56 71° SSW 02:50:30 10° ESE visible
22 Apr 8.1 23:47:11 41° ENE 23:47:11 41° ENE 23:50:17 10° ENE visible
23 Apr 7.2 01:24:43 19° WNW 01:28:00 78° NNE 01:32:36 10° E visible
24 Apr 7.4 00:10:04 65° NNE 00:10:04 65° NNE 00:14:32 10° E visible
24 Apr 7.0 01:47:36 10° WNW 01:52:08 77° SSW 01:56:44 10° ESE visible
24 Apr 9.5 22:55:33 16° ENE 22:55:33 16° ENE 22:56:28 10° ENE visible
25 Apr 7.2 00:33:06 51° WNW 00:34:10 74° N 00:38:46 10° E visible
25 Apr 7.3 02:11:43 10° WNW 02:16:08 47° SSW 02:20:32 10° SE visible
25 Apr 8.9 23:18:48 24° ENE 23:18:48 24° ENE 23:20:40 10° E visible
26 Apr 6.9 00:56:21 34° WNW 00:58:19 83° SSW 01:02:55 10° ESE visible
26 Apr 8.1 02:36:08 10° W 02:39:58 26° SW 02:43:47 10° SSE visible
26 Apr 9.1 18:32:53 10° SSE 18:33:34 11° SSE 18:33:34 11° SSE visible
26 Apr 8.5 23:42:27 31° E 23:42:27 31° E 23:44:55 10° E visible
27 Apr 7.2 01:20:03 27° W 01:22:19 52° SSW 01:26:47 10° SE visible
27 Apr 8.2 18:54:34 10° SSW 18:58:21 24° SE 18:59:41 21° ESE visible
27 Apr 8.6 20:35:17 10° WSW 20:37:24 27° WSW 20:37:24 27° WSW visible
28 Apr 8.5 00:06:50 28° ESE 00:06:50 28° ESE 00:09:04 10° ESE visible
28 Apr 7.9 01:44:30 23° WSW 01:46:10 29° SW 01:50:09 10° SSE visible
28 Apr 7.4 19:17:41 10° SW 19:22:09 43° SSE 19:25:04 19° E visible
28 Apr 7.8 20:59:24 10° W 21:02:43 45° W 21:02:43 45° W visible
29 Apr 9.2 00:32:11 15° SE 00:32:11 15° SE 00:33:00 10° SE visible
29 Apr 8.6 02:09:54 15° SW 02:09:54 15° SW 02:12:31 10° S visible
29 Apr 8.4 18:00:58 10° S 18:04:32 22° SE 18:08:06 10° E visible
29 Apr 7.0 19:41:24 10° WSW 19:46:05 72° SSE 19:49:27 19° ENE visible
29 Apr 7.9 21:23:37 10° W 21:27:04 46° WNW 21:27:04 46° WNW visible
30 Apr 7.6 18:23:54 10° SW 18:28:18 39° SSE 18:32:39 10° ENE visible
30 Apr 7.1 20:05:28 10° WSW 20:10:11 81° NNW 20:13:08 23° ENE visible
30 Apr 8.3 21:47:49 10° WNW 21:50:41 36° WNW 21:50:41 36° WNW visible
01 May 7.1 18:47:31 10° WSW 18:52:12 66° SSE 18:56:51 10° ENE visible
01 May 7.4 20:29:39 10° W 20:34:22 67° N 20:36:21 33° ENE visible
01 May 8.9 22:11:57 10° WNW 22:13:53 24° WNW 22:13:53 24° WNW visible
